{"data":{"norad_id":61925,"epoch":"2026-05-25T04:11:57.132384Z","epoch_age_seconds":56345,"freshness":"FRESH","line1":"1 61925U 24207P   26145.17496681  .00014405  00000+0  53171-3 0  9991","line2":"2 61925  42.9989 213.7569 0000899 285.7795  74.2957 15.27596554 86375","mean_motion":15.27596554,"eccentricity":8.99e-5,"inclination_deg":42.9989,"raan_deg":213.7569,"arg_perigee_deg":285.7795,"mean_anomaly_deg":74.2957,"bstar":0.00053171,"rev_number":8637,"period_min":94.265727179691,"perigee_km":482.38271168216,"apogee_km":483.61634402987,"semimajor_km":6861.136527856,"source":"CELESTRAK","updated_at":"2026-05-25T13:38:19.483188Z"}}